Location: Rodanthe
(35.5920°N, 75.4670°W)
Time: 06:26:43
(UTC-05:00)

ISS - All Passes

Search period start: 11 December 2017 00:00
Search period end: 21 December 2017 00:00
Orbit: 402 x 407 km, 51.6° (Epoch: 11 December)

Date Brightness Start Highest point End Pass type
(mag) Time Alt. Az. Time Alt. Az. Time Alt. Az.
11 Dec - 11:55:35 10° SSW 11:58:38 37° SE 12:01:43 10° ENE daylight
11 Dec - 13:32:39 10° W 13:35:12 21° NNW 13:37:47 10° NNE daylight
11 Dec - 18:26:16 10° NNW 18:28:29 17° NNE 18:30:40 10° ENE visible
11 Dec - 20:01:58 10° WNW 20:05:11 55° SW 20:08:23 10° SSE night (unlit)
12 Dec - 11:04:14 10° S 11:06:33 18° SE 11:08:52 10° E daylight
12 Dec - 12:39:46 10° WSW 12:42:49 35° NW 12:45:54 10° NNE daylight
12 Dec - 17:34:57 10° N 17:35:57 11° NNE 17:36:57 10° NE visible
12 Dec - 19:09:42 10° NW 19:12:58 66° NE 19:16:12 10° SE visible
13 Dec - 11:47:15 10° SW 11:50:31 73° NW 11:53:48 10° NE daylight
13 Dec - 13:26:15 10° NW 13:27:29 12° NNW 13:28:43 10° N daylight
13 Dec - 18:17:38 10° NNW 18:20:39 33° NE 18:23:38 10° ESE visible
13 Dec - 19:54:30 10° W 19:56:57 20° SW 19:59:24 10° S visible
14 Dec - 10:55:06 10° SSW 10:58:17 50° SE 11:01:29 10° ENE daylight
14 Dec - 12:32:39 10° WNW 12:34:57 17° NNW 12:37:16 10° NNE daylight
14 Dec - 17:25:45 10° NNW 17:28:13 19° NNE 17:30:42 10° E visible
14 Dec - 19:01:42 10° WNW 19:04:49 41° SW 19:07:55 10° SSE visible
15 Dec - 10:03:28 10° S 10:06:08 23° SE 10:08:49 10° ENE daylight
15 Dec - 11:39:35 10° W 11:42:30 29° NW 11:45:26 10° NNE daylight
15 Dec - 16:34:09 10° N 16:35:42 13° NNE 16:37:14 10° NE daylight
15 Dec - 18:09:19 10° NW 18:12:36 87° NE 18:15:52 10° SE visible
16 Dec - 09:12:58 10° SE 09:14:02 11° SE 09:15:06 10° ESE daylight
16 Dec - 10:46:55 10° WSW 10:50:07 55° NW 10:53:22 10° NE daylight
16 Dec - 12:26:51 10° NNW 12:27:12 10° NNW 12:27:34 10° NNW daylight
16 Dec - 17:17:08 10° NW 17:20:16 41° NE 17:23:24 10° ESE visible
16 Dec - 18:54:29 10° W 18:56:29 15° SW 18:58:29 10° SSW visible
17 Dec - 09:54:35 10° SW 09:57:50 67° SE 10:01:05 10° NE daylight
17 Dec - 11:32:36 10° WNW 11:34:36 15° NNW 11:36:37 10° N daylight
17 Dec - 16:25:09 10° NNW 16:27:51 23° NNE 16:30:32 10° E daylight
17 Dec - 18:01:23 10° WNW 18:04:20 31° SW 18:07:17 10° SSE visible
18 Dec - 09:02:42 10° SSW 09:05:36 30° SE 09:08:32 10° ENE daylight
18 Dec - 10:39:21 10° W 10:42:05 24° NNW 10:44:49 10° NNE daylight
18 Dec - 15:33:23 10° N 15:35:18 15° NNE 15:37:14 10° ENE daylight
18 Dec - 17:08:50 10° NW 17:12:07 71° SW 17:15:21 10° SE daylight
19 Dec - 08:11:34 10° SSE 08:13:27 15° SE 08:15:21 10° E daylight
19 Dec - 09:46:29 10° WSW 09:49:38 43° NW 09:52:48 10° NE daylight
19 Dec - 16:16:33 10° NW 16:19:46 52° NE 16:22:58 10° ESE daylight
19 Dec - 17:54:36 10° WSW 17:55:52 12° SW 17:57:10 10° SSW visible
20 Dec - 08:54:00 10° SW 08:57:16 88° SE 09:00:34 10° NE daylight
20 Dec - 10:32:30 10° NW 10:34:09 13° NNW 10:35:47 10° N daylight
20 Dec - 15:24:28 10° NNW 15:27:20 27° NE 15:30:12 10° E daylight
20 Dec - 17:01:00 10° WNW 17:03:43 24° SW 17:06:26 10° S daylight
